Daily weather history


Statistical History for Friday, February 15, 2013

St. Petersburg Airport, FL


  Actual Average (KTPA) Record (KTPA)
Temperature
Mean Temperature 64 °F  
Max Temperature 73 °F 84 °F (1990)
Min Temperature 55 °F 31 °F (1943)
Degree Days
Heating Degree Days 4  
Month to date heating degree days 67  
Since 1 July heating degree days 432  
Cooling Degree Days 2  
Month to date cooling degree days 30  
Year to date cooling degree days 80  
Growing Degree Days 10 (Base - )  
Moisture
Dew Point   
Average Humidity    
Maximum Humidity    
Minimum Humidity    
Precipitation
Precipitation 0.11 in 2.26 in (1895)
Month to date precipitation 1.55  
Year to date precipitation 3.78  
Wind
Wind Speed   
Max Wind Speed   
Max Gust Speed   
Visibility   
Events   

Key: T is trace of precipitation, MM is missing value
Source: NWS Daily Summary
Time(EST)TemperatureDew PointHumidity Sea Level Pressure Visibility Wind DirectionWind SpeedGust SpeedPrecipitationEventsConditions
12:02 AM 60.8 °F 57.2 °F 88% 29.98 in 10.0 miles East 4.6 mph - 0.00 in   Overcast
12:14 AM 60.8 °F 57.2 °F 88% 30.00 in 10.0 miles NW 5.8 mph - 0.00 in   Overcast
12:24 AM 60.8 °F 57.2 °F 88% 30.00 in 10.0 miles NNW 8.1 mph - 0.00 in   Overcast
12:33 AM 60.8 °F 57.2 °F 88% 30.01 in 10.0 miles NNW 8.1 mph - 0.00 in   Overcast
12:53 AM 60.1 °F 57.0 °F 90% 30.02 in 10.0 miles North 5.8 mph - 0.00 in Rain Light Rain
1:40 AM 59.0 °F 55.4 °F 88% 30.05 in 10.0 miles North 5.8 mph - 0.00 in   Overcast
1:53 AM 59.0 °F 55.0 °F 87% 30.04 in 10.0 miles North 6.9 mph - 0.00 in   Overcast
2:17 AM 59.0 °F 55.4 °F 88% 30.03 in 10.0 miles North 8.1 mph - N/A   Overcast
2:53 AM 57.9 °F 55.0 °F 90% 30.00 in 10.0 miles North 8.1 mph - 0.00 in Rain Light Rain
3:35 AM 57.2 °F 55.4 °F 94% 30.01 in 10.0 miles North 8.1 mph - 0.00 in   Overcast
3:53 AM 57.9 °F 55.0 °F 90% 30.02 in 10.0 miles North 8.1 mph - 0.00 in   Overcast
4:10 AM 57.2 °F 55.4 °F 94% 30.01 in 10.0 miles North 8.1 mph - N/A   Overcast
4:53 AM 57.9 °F 55.0 °F 90% 30.02 in 10.0 miles NE 9.2 mph - N/A   Overcast
5:53 AM 57.9 °F 54.0 °F 87% 30.02 in 10.0 miles NNE 8.1 mph - 0.00 in   Overcast
6:53 AM 57.9 °F 54.0 °F 87% 30.05 in 10.0 miles North 6.9 mph - N/A   Overcast
7:53 AM 57.0 °F 54.0 °F 89% 30.07 in 10.0 miles North 8.1 mph - N/A   Overcast
8:53 AM 55.9 °F 53.1 °F 90% 30.09 in 9.0 miles North 5.8 mph - N/A   Overcast
9:53 AM 55.9 °F 53.1 °F 90% 30.09 in 5.0 miles NNE 8.1 mph - N/A   Overcast
10:40 AM 57.2 °F 53.6 °F 88% 30.10 in 10.0 miles NNE 4.6 mph - N/A   Overcast
10:53 AM 57.0 °F 52.0 °F 83% 30.10 in 10.0 miles North 4.6 mph - N/A   Overcast
11:53 AM 57.0 °F 53.1 °F 87% 30.09 in 10.0 miles North 5.8 mph - N/A   Overcast
12:25 PM 57.2 °F 53.6 °F 88% 30.08 in 10.0 miles Variable 3.5 mph - N/A   Mostly Cloudy
12:53 PM 60.1 °F 53.1 °F 78% 30.06 in 10.0 miles North 4.6 mph - N/A   Scattered Clouds
1:53 PM 60.8 °F 53.6 °F 77% 30.03 in 10.0 miles NE 5.8 mph - N/A   Scattered Clouds
2:53 PM 63.0 °F 51.1 °F 65% 30.00 in 10.0 miles NE 4.6 mph - N/A   Scattered Clouds
3:53 PM 66.0 °F 48.9 °F 54% 29.99 in 10.0 miles NE 4.6 mph - N/A   Overcast
4:53 PM 64.9 °F 53.1 °F 65% 29.99 in 10.0 miles NW 9.2 mph - N/A   Partly Cloudy
5:53 PM 63.0 °F 51.1 °F 65% 29.99 in 10.0 miles WNW 6.9 mph - N/A   Mostly Cloudy
6:53 PM 57.9 °F 48.9 °F 72% 29.99 in 10.0 miles WNW 5.8 mph - N/A   Scattered Clouds
7:53 PM 59.0 °F 50.0 °F 72% 29.99 in 10.0 miles NNW 9.2 mph - N/A   Overcast
8:53 PM 57.9 °F 51.1 °F 78% 30.01 in 10.0 miles NNW 8.1 mph - N/A   Mostly Cloudy
9:53 PM 59.0 °F 50.0 °F 72% 30.02 in 10.0 miles North 8.1 mph - N/A   Mostly Cloudy
10:53 PM 60.1 °F 50.0 °F 69% 30.01 in 10.0 miles NNW 8.1 mph - N/A   Partly Cloudy
11:53 PM 59.0 °F 51.1 °F 75% 30.01 in 10.0 miles NNW 6.9 mph - N/A   Partly Cloudy
ADVERTISEMENT
Enter city or zip code to search weather conditions:

My favorites Edit

Scattered Clouds
62°
Scattered Clouds

Mostly Cloudy
60°
Mostly Cloudy

Clear
66°
Clear


  • 490 First Avenue South
  • St. Petersburg, FL 33701
  • 727-893-8111